Weather History for Casper, WY

Change the Weather History Date:

Sunday, January 13, 2013

  Actual Average Record
Temperature  
Mean Temperature 0 °F 25 °F  
Max Temperature 8 °F 35 °F 52 °F (1953)
Min Temperature -8 °F 14 °F -40 °F (1972)
Degree Days  
Heating Degree Days 65 40  
Month to date heating degree days 579 525  
Since 1 July heating degree days 3302 3654  
Cooling Degree Days 0 0  
Month to date cooling degree days 0 0  
Year to date cooling degree days 0 0  
Moisture  
Dew Point -7 °F    
Average Humidity 73    
Maximum Humidity 83    
Minimum Humidity 63    
Precipitation  
Precipitation T in 0.01 in 0.11 in (1984)
Month to date precipitation 0.11 0.21  
Year to date precipitation 0.11 0.21  
Snow  
Snow 0.20 in 0.30 in - ()
Month to date snowfall 2.2 4.0  
Since 1 July snowfall 20.9 34.5  
Snow Depth 1.00 in    
Sea Level Pressure  
Sea Level Pressure 30.32 in    
Wind  
Wind Speed 8 mph (WSW)    
Max Wind Speed 13 mph    
Max Gust Speed 17 mph    
Visibility 8 miles    
Events Snow    
T = Trace of Precipitation, MM = Missing Value Source: NWS Daily Summary

Daily Weather History Graph

Daily Weather History Graph

Search for Another Location

Airport:

Trip Planner

Search our weather history database for the weather conditions in past years. The results will help you decide how hot, cold, wet, or windy it might be!

Date:

Astronomy

Jan. 13, 2013 Rise Set
Actual Time 7:34 AM MST 4:55 PM MST
Civil Twilight 7:03 AM MST 5:26 PM MST
Nautical Twilight 6:28 AM MST 6:01 PM MST
Astronomical Twilight 5:54 AM MST 6:35 PM MST
Moon 8:30 AM MST (1/13) 7:41 PM MST (1/13)
Length of Visible Light 10h 23m
Length of Day
9h 20m
Waxing Crescent, 5% of the Moon is Illuminated
Jan 13
Waxing Crescent
Jan 18
First Quarter
Jan 26
Full
Feb 3
Last Quarter
Feb 10
New

Hourly Weather History & Observations

Time (MST) Temp. Windchill Dew Point Humidity Pressure Visibility Wind Dir Wind Speed Gust Speed Precip Events Conditions
12:53 AM -2.9 °F -17.7 °F -8.0 °F 79% 30.27 in 10.0 mi WSW 8.1 mph - N/A   Mostly Cloudy
1:53 AM -0.9 °F -12.7 °F -6.0 °F 79% 30.27 in 7.0 mi WSW 5.8 mph - 0.00 in Snow Light Snow
2:53 AM -0.0 °F -11.6 °F -5.1 °F 79% 30.27 in 3.0 mi WSW 5.8 mph - 0.00 in Snow Light Snow
3:53 AM -0.9 °F -12.7 °F -6.0 °F 79% 30.26 in 6.0 mi WSW 5.8 mph - 0.00 in   Haze
4:53 AM -4.0 °F -17.8 °F -9.0 °F 79% 30.29 in 10.0 mi WSW 6.9 mph - N/A   Overcast
5:53 AM -4.0 °F -19.0 °F -9.9 °F 76% 30.33 in 10.0 mi SW 8.1 mph - N/A   Overcast
6:53 AM -7.1 °F -22.8 °F -11.9 °F 79% 30.36 in 10.0 mi WSW 8.1 mph - N/A   Clear
7:53 AM -8.0 °F -23.9 °F -14.1 °F 75% 30.40 in 10.0 mi WSW 8.1 mph - N/A   Clear
8:53 AM -4.0 °F -12.4 °F -9.9 °F 76% 30.40 in 10.0 mi West 3.5 mph - N/A   Clear
9:53 AM -0.0 °F -15.3 °F -6.0 °F 76% 30.37 in - SW 9.2 mph - N/A   Clear
10:53 AM 3.9 °F -9.4 °F -4.0 °F 70% 30.34 in 10.0 mi SW 8.1 mph - N/A   Clear
11:53 AM 5.0 °F -10.0 °F -4.0 °F 66% 30.30 in 10.0 mi SW 10.4 mph - N/A   Clear
12:53 PM 7.0 °F -6.6 °F -2.9 °F 64% 30.28 in 10.0 mi SW 9.2 mph - N/A   Clear
1:53 PM 8.1 °F -7.0 °F -2.9 °F 61% 30.26 in 10.0 mi SW 11.5 mph - N/A   Clear
2:53 PM 7.0 °F -6.6 °F -2.0 °F 67% 30.28 in 10.0 mi SW 9.2 mph - N/A   Scattered Clouds
3:53 PM 7.0 °F -6.6 °F -2.9 °F 64% 30.31 in 5.0 mi SW 9.2 mph - N/A   Scattered Clouds
4:53 PM 6.1 °F -4.3 °F -2.0 °F 69% 30.33 in 3.0 mi WSW 5.8 mph - 0.00 in Snow Light Snow
5:53 PM 3.0 °F -9.3 °F -2.9 °F 76% 30.35 in 5.0 mi WSW 6.9 mph - 0.00 in   Haze
6:53 PM 1.0 °F -10.3 °F -5.1 °F 75% 30.36 in 5.0 mi West 5.8 mph - N/A   Haze
7:53 PM -0.9 °F -14.1 °F -7.1 °F 75% 30.39 in 10.0 mi WSW 6.9 mph - N/A   Mostly Cloudy
7:57 PM -18.4 °F -39.1 °F -20.2 °F 91% 30.01 in 10.0 mi North 10.4 mph - N/A   Scattered Clouds
8:53 PM -2.9 °F -17.7 °F -9.0 °F 75% 30.38 in 10.0 mi WSW 8.1 mph - N/A   Clear
9:53 PM -4.0 °F -17.8 °F -9.9 °F 76% 30.37 in - West 6.9 mph - N/A   Partly Cloudy
10:53 PM -2.9 °F -20.8 °F -9.9 °F 72% 30.35 in - WSW 11.5 mph - N/A   Clear
11:53 PM -5.1 °F -23.5 °F -9.9 °F 80% 30.36 in - WSW 11.5 mph - N/A   Clear